Suure-Jaani

Estonia     58˚31′46″N   25˚28′03″E
temp.,
°C
wind,
m/s
gust,
m/s
humid.,
%
clouds,
%
prec.,
mm/h
press.,
hPa
HPBL,
m
3 december, thu
thu323:00−3˚sse368697 0.1 1027540
02:00−3˚sse368098 0.1 1026620
05:00−2˚sse3679100 0.0 1024734
08:00−1˚sse3677100 0.1 1023839
11:00−1˚se4666100 0.0 1022875
14:00−2˚sse477396 0.0 1021732
17:00−2˚sse488299 0.0 1020696
20:00−2˚sse487999 0.1 1019828
4 december, fri
fri423:00−1˚sse5974100 0.0 1019895
02:00−1˚se51078100 0.0 1018885
05:00−1˚se51177100 0.0 1016783
08:00se51280100 0.1 1017766
11:00se61387100 0.3 1016675
14:00+2˚se61379100 0.8 1016819
17:00+2˚sse51383100 0.0 1015813
20:00+2˚se51283100 0.0 1016886
5 december, sat
sat523:00+2˚sse51284100 0.0 1016896
02:00+2˚sse41285100 0.0 1016882
05:00+3˚se41389100 0.0 1015706
08:00+4˚sse51489100 0.0 1016699
11:00+4˚sse51386100 0.0 1016794
14:00+5˚sse41385100 0.0 1018787
17:00+5˚sse51385100 0.0 1018776
20:00+5˚sse51385100 0.0 1019760
6 december, sun
sun623:00+5˚sse41386100 0.0 1020744
02:00+5˚sse41185100 0.0 1021771
05:00+5˚sse41085100 0.0 1021679
08:00+5˚sse41185100 0.0 1022674
11:00+5˚sse41183100 0.0 1024779
14:00+5˚sse51078100 0.0 1025797
17:00+3˚sse41181100 0.0 1025704
20:00+2˚sse4128066 0.0 1027568
7 december, mon
mon723:00+1˚sse4117711 0.0 1028552
02:00sse4135949 0.0 1029513
05:00se4125836 0.0 1029447
08:00se5135426 0.0 1029478
11:00se5115250 0.0 1030540
14:00+1˚se5125125 0.0 1029592
17:00se514580 0.0 1029598
20:00−1˚se514571 0.0 1029619